Home > Time Zones > World Clock > Weather > China > Hefei > Past weeks

Flag for China Weather past 2 weeks in Hefei, Anhui, China

Now
90 °F

Partly sunny.


Feels Like: 105 °F
Forecast: 76 / 87 °F
Wind: 15 mph from Northeast

Location: Hefei Airport

Current Time: Jul 24, 2014 at 3:24:02 PM

Latest Report: Jul 24, 2014 at 2:00 PM


Visibility: N/A

Pressure: 29.42 "Hg

Humidity: 71%

Dew point: 79 °F

Location of HefeiLocation

Historic Weather in Hefei — Graph

°F

Hefei temperature yesterday

Maximum temperature yesterday: 97 °F (at 12:00 PM)
Minimum temperature yesterday: 84 °F (at 9:00 PM)
Average temperature yesterday: 90 °F

Past Weeks' High & Low Weather Summary

 TemperatureHumidityPressure
High100 °F (Jul 21, 3:00 PM)100% (Jul 10, 6:00 AM)29.86 "Hg (Jul 10, 6:00 AM)
Low70 °F (Jul 12, 7:00 AM)45% (Jul 21, 3:00 PM)29.45 "Hg (Jul 24, 1:00 PM)
Average83 °F82%29.69 "Hg
* Reported Jul 9 1:00 PM — Jul 24 1:00 PM, Hefei, Weather by CustomWeather, © 2014

Note: Actual official high and low records may vary slightly from our data, if they occured in-between our weather recording intervals... More about our weather records

Advertising

Hefei weather history for previous 24 hours

 ConditionsComfort  
Time TempWeatherWind HumidityBarometerVisibility
1:00 PM
Jul 24
88 °FPartly sunny.13 mph75%29.45 "HgN/A
12:00 PM90 °FPartly sunny.15 mph75%29.47 "Hg6 mi
11:00 AM88 °FFog.13 mph79%29.50 "Hg2 mi
10:00 AM84 °FFog.10 mph89%29.50 "Hg2 mi
9:00 AM84 °FFog.8 mph89%29.53 "Hg1 mi
8:00 AM82 °FLight rain. Fog.8 mph89%29.53 "Hg1 mi
7:00 AM81 °FLight rain. Fog.8 mph94%29.53 "Hg1 mi
6:00 AM81 °FFog.8 mph94%29.53 "Hg1 mi
5:00 AM81 °FFog.6 mph94%29.53 "Hg1 mi
4:00 AM82 °FFog.6 mph89%29.53 "Hg2 mi
3:00 AM82 °FFog.3 mph89%29.53 "Hg2 mi
2:00 AM82 °FFog.3 mph89%29.53 "Hg2 mi
1:00 AM82 °FFog.3 mph89%29.53 "Hg2 mi
12:00 AM84 °FClear.3 mph84%29.56 "Hg4 mi
11:00 PM
Jul 23
84 °FClear.3 mph84%29.56 "Hg4 mi
10:00 PM84 °FClear.1 mph84%29.59 "Hg4 mi
9:00 PM84 °FPassing clouds.6 mph84%29.56 "Hg4 mi
7:00 PM90 °FPassing clouds.3 mph67%29.56 "HgN/A
6:00 PM93 °FSunny.6 mph59%29.56 "Hg10 mi
5:00 PM95 °FClear.6 mph60%29.53 "Hg5 mi
Weather by CustomWeather, © 2014

See weather overviewHow to use our weather pages